STARLINK-5692, 55483

Orbit data source: Space-Track

STARLINK-5692, 55483 is a payload satellite owned by SpaceX/Seattle (US) in LEO that was launched on Thu, 02 Feb 2023 UTC via an FALCON 9 launch vehicle from the Air Force Eastern Test Range (AFETR). Payload-class satellites include a variety of spacecraft equipped with specific instruments for various scientific and technological missions. These include communications satellites like Starlink; space stations such as the ISS; scientific satellites like the Hubble; Earth observation satellites from companies like Planet Labs, Umbra, and HawkEye 360; GPS; miniature CubeSats for education and research; and military/defense satellites.

Loading next visibility...
Identifier
55483, 2023-015AL
Orbit
LEO
Country
Flag of USUS
Related business
Manufacturer
SpaceX/Seattle
Mission
Operational Commercial Communications
Bus & Motor
STARLINK, Unknown motor
Mass
305 kg wet, ~290 kg dry
Launch date (UTC)
2023-02-02 (4 years ago)
Launch vehicle
FALCON 9
Launch site
Air Force Eastern Test Range (AFETR)
Object type
Payload
Rocket body
Debris
Shape & HBR
Box + 1 Pan, 10.1 m
Radar Cross Section
13.562 m², Large (>1 m²)

Expand to show TLE details & history
Last TLE update: 16 hours ago

TLE from 16 hours ago
0 STARLINK-5692
1 55483U 23015AL  26263.45340662 -.00000098  00000-0  59818-5 0  9999
2 55483  43.0029 319.6620 0001291 267.1724  92.8980 15.27576311200381
Epoch: 2026-09-20T10:52Z
TLE epoch observation values (Epoch: 2026-09-20T10:52:54.331Z)
Latitude
-0.00003°
Longitude
157.08821°
Altitude
482.881 km
Speed
7.626 km/s
True Right ascension
21h 18m 38s
True Declination
0° 00' 00"
Sunlit
Object was in full shadow at epoch
Visualization orbit readout
Latitude
Unknown
Longitude
Unknown
Altitude
Unknown
Speed
Unknown
Apparent Right ascension
Unknown
Apparent Declination
Unknown
Sunlit
N/A
Visualization observer readout
Local Sidereal Time
20:09:09
Azimuth
Unknown
Elevation
Unknown
Doppler factor
Unknown
Orbital elements
Apogee altitude
485.891 km
Perigee altitude
484.119 km
Semi-major axis
6,863.142 km
Eccentricity
0.00013
Inclination
43.0029°
RAAN
319.662°
Arg. of periapsis
267.1724°
True anomaly
92.91277°
Mean anomaly
92.898°
Eccentric anomaly
92.90539°
Mean motion
3.81732 °/min
Orbital period
94.31 mins
BSTAR
0.0000059818
Loading maneuver chart data...
Computing Atmospheric mass density...
Loading historical data...
Loading historical data...
Loading historical data...
Loading historical data...
Loading historical data...
Loading historical data...
Loading historical data...

Documentation

Showing up to 5 results
|